Wind_Speed
43 42 44 46 46 46 43 42 43 48 48 51 54 57 59 62 64 65 64 64 64 66 67 66 67 69 71 75 78 78 77 77
39 41 44 42 42 43 46 47 49 51 54 54 56 60 63 65 67 69 66 66 66 67 68 70 73 76 79 81 82 84 86 86
38 40 41 44 47 45 46 48 50 51 52 56 62 65 67 68 70 69 70 72 74 77 77 79 83 85 88 89 89 90 93 93
37 37 39 41 46 50 48 47 46 50 56 61 65 68 72 73 73 75 78 79 80 82 84 88 90 90 91 94 95 98 101 103
37 39 41 42 45 46 50 51 53 55 59 64 67 68 69 72 75 79 83 84 87 90 92 94 97 100 103 105 107 109 112 113
42 43 44 48 46 47 49 52 55 59 61 63 66 68 70 74 80 86 91 95 98 100 102 105 107 111 114 117 120 122 125 127
44 46 50 48 48 51 52 51 54 56 59 62 66 69 74 78 84 89 93 97 101 103 106 110 114 119 123 128 131 133 133 132
40 44 44 43 49 52 55 55 57 60 62 66 70 74 78 82 87 92 98 103 107 111 115 118 123 128 133 135 134 131 132 131
41 43 45 46 48 51 55 59 63 65 69 73 76 79 84 88 94 100 104 110 114 118 121 126 131 132 129 127 126 127 126 122
43 45 48 51 53 55 57 61 64 67 70 74 78 83 89 94 100 107 112 118 121 124 126 126 126 124 125 125 122 119 116 111
46 50 52 53 56 59 61 63 65 69 74 79 84 90 96 102 107 113 117 122 125 126 127 125 125 127 125 121 116 112 105 99
46 47 50 54 58 62 63 66 70 75 81 85 90 97 103 108 112 116 121 127 129 128 123 121 121 120 118 112 108 103 99 93
49 52 55 56 58 61 66 71 75 81 87 93 99 104 108 113 118 122 127 128 128 126 120 119 115 110 104 102 97 93 88 83
52 54 56 58 62 66 71 76 82 88 95 100 104 110 117 121 124 129 131 126 120 123 117 109 104 95 92 90 86 82 78 74
59 60 60 63 66 70 75 80 87 94 101 106 113 117 122 127 129 125 122 120 116 113 109 102 92 86 81 78 76 74 71 68
62 62 63 66 69 74 81 87 93 99 106 112 115 122 128 129 124 122 117 115 108 101 94 90 85 80 77 75 73 70 68 65
60 61 64 69 76 81 87 94 99 105 110 116 124 130 131 128 124 119 112 104 100 93 87 82 80 77 74 71 69 67 63 59
62 65 71 76 81 88 95 100 105 111 117 124 131 132 128 123 118 112 105 98 92 86 81 78 75 72 70 67 63 63 60 57
68 72 79 84 90 96 101 107 113 119 124 129 131 129 125 122 116 105 98 90 84 80 77 73 70 68 66 63 60 58 56 53
Wind_Direction
266 266 266 267 268 270 275 273 273 276 277 280 282 283 285 287 292 296 295 294 295 294 293 292 292 292 291 289 289 287 285 285
257 261 265 271 272 275 273 275 276 280 281 283 283 284 286 290 293 294 294 294 292 291 290 290 290 290 289 287 286 287 288 287
264 267 272 278 278 274 276 279 280 279 279 284 287 288 290 292 292 291 291 292 290 290 291 293 294 293 291 288 288 287 288 287
272 271 274 278 284 287 287 285 282 285 288 288 289 292 294 296 296 297 296 295 293 293 293 294 294 293 292 290 289 289 289 288
281 280 277 281 283 284 287 288 287 286 287 289 292 294 295 296 297 297 297 297 296 296 297 296 296 296 295 295 294 293 293 292
290 287 286 286 285 286 285 288 291 293 294 296 296 297 298 298 298 300 301 302 303 302 302 301 300 299 298 296 296 294 294 293
284 284 282 292 294 290 293 294 293 292 293 294 296 296 295 297 299 300 299 298 298 298 298 299 298 298 298 298 297 296 294 293
276 280 289 293 292 295 298 300 298 296 294 292 292 293 296 298 298 297 298 299 300 301 300 298 298 299 299 298 297 295 293 292
286 290 292 290 290 293 294 296 299 298 296 296 298 300 301 301 301 301 301 299 300 300 300 300 299 299 297 296 294 293 293 292
289 285 284 287 290 291 293 293 292 293 296 298 298 300 300 300 300 300 301 302 302 302 302 303 303 300 299 298 297 297 296 295
292 291 292 291 291 292 294 296 297 298 298 299 299 299 300 301 302 303 304 304 307 309 308 308 306 304 301 300 300 298 297 296
294 296 295 295 296 296 296 297 298 298 300 301 300 302 303 305 305 305 307 311 310 309 308 306 303 302 301 303 300 300 299 298
303 302 302 301 300 299 299 299 300 302 303 304 304 306 307 307 309 311 311 312 312 309 308 305 304 303 304 300 300 299 298 297
306 304 303 303 303 302 302 302 303 303 304 305 307 308 310 311 312 312 313 314 312 309 306 305 303 305 302 301 300 298 298 297
310 308 306 306 305 304 303 302 303 305 307 308 311 311 311 312 312 314 315 313 311 308 307 306 307 306 305 302 302 301 300 299
307 307 306 304 302 302 304 306 308 309 311 311 310 311 312 313 316 316 316 313 309 309 309 309 309 309 308 307 304 304 304 301
307 306 303 303 306 308 308 310 311 311 309 310 312 313 314 316 318 319 315 313 312 312 312 312 311 310 308 307 307 305 304 304
308 307 308 308 308 310 313 312 311 310 311 313 315 314 316 319 320 318 316 316 315 314 314 313 311 311 309 307 309 307 308 307
309 309 311 312 313 314 312 313 313 313 313 315 315 318 320 322 321 318 317 316 316 315 315 314 313 311 311 311 310 308 308 306
Height
10684 10679 10678 10676 10675 10675 10671 10665 10657 10651 10648 10643 10636 10630 10628 10623 10618 10612 10607 10601 10596 10591 10585 10580 10575 10570 10564 10559 10555 10550 10546 10545
10676 10672 10669 10670 10668 10666 10659 10655 10650 10644 10638 10634 10626 10619 10615 10610 10605 10597 10591 10585 10580 10574 10569 10563 10557 10552 10545 10539 10533 10527 10522 10521
10669 10666 10663 10658 10652 10653 10649 10645 10641 10635 10630 10622 10612 10604 10600 10596 10589 10582 10576 10571 10563 10555 10550 10544 10538 10531 10522 10516 10510 10506 10500 10495
10662 10660 10656 10648 10641 10635 10634 10632 10628 10623 10615 10607 10599 10591 10583 10574 10568 10561 10554 10547 10539 10534 10530 10524 10514 10505 10498 10490 10484 10477 10469 10464
10650 10648 10643 10639 10633 10628 10622 10619 10616 10610 10604 10596 10588 10579 10571 10560 10551 10541 10532 10524 10516 10511 10504 10493 10483 10473 10463 10455 10447 10439 10429 10422
10636 10632 10628 10623 10622 10621 10617 10610 10604 10598 10589 10580 10572 10565 10555 10544 10534 10521 10508 10496 10487 10479 10472 10461 10450 10438 10427 10418 10408 10397 10385 10375
10625 10619 10614 10613 10611 10605 10603 10602 10596 10588 10580 10571 10560 10550 10540 10530 10519 10507 10494 10483 10473 10462 10451 10439 10425 10411 10397 10383 10370 10357 10345 10330
10616 10610 10609 10605 10599 10593 10587 10584 10577 10571 10565 10557 10548 10538 10529 10519 10506 10491 10476 10461 10446 10434 10421 10407 10392 10378 10362 10348 10332 10315 10300 10284
10611 10607 10603 10599 10593 10587 10579 10571 10562 10553 10545 10536 10527 10518 10508 10495 10480 10465 10450 10435 10423 10411 10396 10380 10362 10345 10326 10309 10293 10277 10263 10249
10604 10600 10595 10590 10584 10577 10569 10561 10552 10542 10532 10522 10512 10501 10489 10476 10461 10445 10429 10410 10394 10379 10362 10340 10321 10301 10283 10267 10253 10237 10222 10210
10591 10586 10581 10575 10568 10562 10553 10544 10534 10524 10514 10505 10495 10481 10467 10453 10437 10419 10400 10379 10357 10339 10321 10298 10277 10256 10241 10227 10215 10197 10186 10177
10582 10576 10569 10562 10554 10545 10536 10527 10518 10508 10496 10485 10472 10456 10441 10427 10410 10390 10370 10348 10325 10304 10287 10268 10246 10226 10207 10194 10176 10164 10151 10143
10566 10559 10552 10545 10537 10529 10520 10509 10499 10487 10475 10461 10447 10430 10413 10398 10379 10358 10340 10317 10294 10267 10255 10231 10212 10196 10181 10162 10149 10138 10128 10120
10552 10545 10538 10530 10523 10513 10503 10492 10479 10466 10451 10437 10421 10406 10385 10367 10350 10328 10306 10285 10263 10230 10218 10205 10184 10171 10152 10136 10123 10113 10105 10096
10537 10530 10522 10514 10506 10496 10485 10474 10461 10446 10429 10411 10394 10375 10355 10338 10322 10300 10276 10249 10232 10208 10188 10169 10157 10142 10128 10114 10100 10089 10081 10073
10527 10518 10509 10501 10491 10480 10469 10456 10440 10423 10404 10386 10369 10352 10331 10310 10290 10270 10246 10221 10199 10181 10164 10145 10129 10116 10103 10090 10078 10068 10059 10052
10514 10505 10495 10484 10474 10462 10449 10434 10417 10400 10383 10364 10345 10323 10299 10277 10254 10230 10208 10190 10168 10152 10137 10121 10108 10095 10083 10069 10059 10049 10040 10033
10497 10487 10478 10468 10456 10442 10427 10412 10397 10377 10357 10336 10314 10291 10268 10246 10222 10200 10178 10160 10144 10128 10114 10101 10088 10075 10063 10051 10042 10030 10021 10013
10482 10472 10460 10449 10436 10422 10405 10389 10369 10348 10328 10308 10286 10262 10239 10216 10195 10175 10155 10139 10123 10108 10095 10081 10070 10058 10044 10034 10025 10016 10008 10000